Vorticity
11 14 9 12 16 16 14 7 11 1 11 16 12 19 23 20 15 11 8 20 34 8 22 20 28 30 32 20 3 14 1 3 -1 6 16 7 3 3 9 5 2 4 3 10
21 3 19 10 7 8 7 7 7 4 10 21 15 9 10 15 12 8 10 12 18 78 2 0 9 7 2 22 4 15 2 22 16 3 5 9 2 10 10 3 6 7 2 3
6 12 17 8 9 11 11 11 8 9 15 13 14 11 14 18 10 6 7 8 9 4 69 -9 -13 8 0 13 26 6 17 10 7 7 9 12 5 4 6 16 -1 1 9 0
13 12 12 10 11 10 7 8 2 12 19 4 4 7 1 8 1 2 1 2 4 2 6 34 28 9 -4 -2 -10 0 18 17 14 6 6 3 8 4 4 11 11 -7 11 3
16 13 14 16 7 0 0 10 7 5 3 4 2 15 11 8 3 0 5 -1 4 -1 6 6 7 15 52 -6 4 -16 4 3 10 17 -1 18 2 4 -1 13 4 4 11 8
8 6 5 7 5 4 16 7 6 5 5 8 12 7 -2 -2 11 6 3 3 4 3 2 1 6 7 16 20 41 3 -34 21 -1 2 11 3 31 -3 7 5 5 4 -1 5
6 7 1 -3 10 16 10 4 13 11 9 5 0 2 9 3 6 12 13 9 9 2 6 7 3 4 8 5 9 23 37 -20 -37 56 11 -0 13 14 3 5 11 -0 12 1
9 9 3 -0 -2 17 17 19 17 18 15 6 11 9 6 3 8 2 9 6 13 10 4 11 7 3 6 8 11 12 2 52 0 48 8 46 5 13 13 6 7 18 10 -1
4 9 12 12 14 16 5 5 7 9 11 3 20 13 15 16 16 3 -0 5 19 10 9 3 8 7 1 4 17 6 7 11 36 -35 -25 39 32 -1 4 10 6 17 10 -4
8 6 9 9 10 11 12 13 12 20 8 6 1 3 9 18 9 23 10 2 4 15 11 7 7 4 0 -0 6 12 -1 33 13 21 -35 39 0 28 4 7 9 13 26 21
33 34 31 29 26 21 14 27 22 31 21 42 19 18 16 10 -7 -2 20 3 16 6 11 10 8 5 -0 7 -5 15 4 25 23 15 -5 16 12 33 7 15 22 15 -2 20
12 11 11 15 20 14 9 9 15 16 34 13 0 6 -3 -6 8 -14 14 12 11 23 29 15 16 13 6 6 0 17 2 19 14 -3 11 5 17 37 -2 4 22 11 19 10
30 4 16 13 9 12 15 21 20 1 3 24 17 5 11 38 44 6 1 9 8 33 20 17 19 23 7 0 0 10 5 22 -4 28 12 17 -29 24 -19 -1 -4 13 39 4
21 23 27 31 29 23 24 22 17 31 30 11 10 27 13 -50 35 19 -2 11 5 13 19 8 10 33 19 -5 12 15 27 -7 4 -6 14 14 6 15 35 2 7 5 16 14
35 58 29 23 32 24 14 19 20 7 17 33 22 17 38 -9 7 17 22 14 8 12 27 11 5 9 23 6 7 14 12 15 0 11 -0 27 10 11 20 8 8 7 -3 3
10 23 55 48 34 38 61 20 15 18 19 22 -20 21 20 12 2 17 22 10 3 16 10 35 12 7 7 16 15 17 36 22 2 5 12 25 -10 26 33 24 6 13 8 -1
26 6 26 34 9 -0 3 18 29 4 9 39 -20 17 -20 33 26 7 14 7 1 10 3 -3 -1 19 22 7 19 -6 4 13 10 3 13 12 6 18 12 3 16 45 15 -30
18 16 13 20 19 25 20 18 -5 -6 44 18 27 35 24 10 -6 30 13 15 24 26 10 8 15 30 12 -13 1 5 13 4 12 9 11 7 7 10 11 5 -1 3 28 26
4 21 6 -17 1 20 6 9 15 -2 9 5 8 -1 14 17 21 2 2 12 18 12 4 8 7 20 10 6 24 5 13 26 23 18 7 3 7 10 8 11 3 9 12 14
1 -4 8 3 5 30 9 4 5 -10 3 20 5 -1 6 9 6 7 23 20 22 7 25 23 -27 29 34 8 3 13 19 15 15 11 6 6 8 14 14 13 11 10 10 9
7 19 10 12 2 8 9 2 -3 -2 8 3 8 10 17 17 16 6 -1 13 18 18 27 -4 -6 27 24 4 -0 10 8 11 14 9 6 9 13 18 12 11 13 13 10 17
6 15 -1 2 2 4 4 6 8 6 10 5 10 4 20 20 21 17 17 15 37 12 -4 -8 22 18 -0 10 8 6 10 14 13 13 9 10 2 -0 6 4 10 13 16 6
9 9 15 5 6 10 11 15 16 21 27 31 21 5 7 30 18 28 23 20 -2 9 4 2 8 -8 3 10 11 12 5 6 5 -3 1 6 5 6 9 9 9 11 13 7
10 5 8 12 10 3 9 18 27 35 15 13 11 27 15 27 6 14 11 22 16 2 30 21 -4 5 16 5 7 13 19 15 11 15 16 16 14 11 11 13 12 14 20 24
7 6 4 12 14 25 31 21 15 -4 -2 1 -1 17 23 17 -1 33 18 11 35 18 8 0 6 15 22 22 12 19 -4 1 3 15 19 11 13 15 13 13 12 12 13 16
0 2 8 22 22 30 20 -2 6 3 6 11 30 17 19 22 12 17 2 -15 -4 12 -1 0 2 12 -1 6 3 12 24 21 10 7 9 6 2 0 2 3 6 5 3 3
12 14 10 10 32 -2 14 9 15 14 10 19 11 29 10 14 -0 -1 14 -13 -7 35 48 49 14 -0 -13 -21 6 4 1 6 6 3 6 10 11 12 11 10 8 6 6 8
Height
5503 5508 5513 5518 5523 5529 5533 5536 5540 5546 5550 5555 5561 5573 5582 5583 5586 5589 5594 5598 5607 5613 5618 5623 5630 5638 5642 5646 5650 5655 5657 5663 5670 5678 5684 5686 5689 5692 5696 5695 5697 5699 5701 5705
5492 5498 5503 5509 5515 5520 5525 5526 5533 5534 5541 5548 5557 5563 5568 5570 5576 5580 5588 5595 5600 5608 5611 5616 5622 5628 5633 5638 5639 5641 5647 5653 5658 5665 5672 5675 5674 5681 5685 5688 5690 5688 5692 5697
5481 5487 5493 5500 5506 5512 5514 5516 5521 5527 5534 5543 5547 5551 5557 5563 5569 5575 5582 5590 5595 5600 5605 5611 5621 5626 5630 5632 5631 5635 5639 5644 5649 5655 5662 5668 5668 5671 5679 5682 5680 5683 5683 5692
5471 5476 5483 5490 5496 5501 5502 5503 5512 5520 5526 5533 5541 5547 5554 5560 5567 5571 5576 5582 5588 5593 5600 5603 5610 5616 5618 5622 5625 5628 5633 5637 5637 5645 5649 5650 5660 5663 5668 5672 5674 5674 5681 5682
5460 5466 5471 5477 5484 5489 5488 5495 5503 5509 5515 5522 5532 5538 5548 5555 5559 5564 5570 5575 5580 5585 5591 5594 5600 5603 5609 5612 5614 5611 5619 5625 5630 5636 5641 5643 5642 5651 5656 5661 5665 5668 5671 5673
5449 5454 5459 5465 5471 5473 5476 5485 5492 5497 5503 5510 5520 5533 5544 5545 5547 5555 5562 5568 5573 5576 5581 5585 5590 5594 5597 5602 5603 5604 5609 5616 5621 5627 5628 5630 5630 5641 5645 5651 5655 5658 5658 5667
5436 5441 5445 5450 5455 5459 5464 5471 5477 5483 5490 5498 5514 5520 5524 5533 5539 5545 5552 5558 5559 5569 5571 5576 5580 5584 5586 5589 5594 5595 5599 5604 5605 5613 5618 5613 5632 5633 5637 5640 5646 5650 5653 5659
5421 5426 5430 5434 5439 5443 5448 5454 5460 5467 5474 5489 5498 5509 5517 5519 5527 5535 5541 5548 5550 5554 5559 5564 5569 5575 5578 5580 5583 5585 5588 5592 5598 5601 5603 5609 5618 5628 5633 5631 5634 5641 5647 5652
5404 5408 5412 5416 5421 5426 5432 5438 5446 5451 5459 5471 5492 5493 5500 5506 5516 5520 5533 5535 5537 5542 5549 5551 5559 5564 5569 5572 5574 5576 5581 5584 5587 5590 5591 5594 5609 5617 5624 5625 5625 5635 5639 5640
5383 5387 5391 5396 5400 5406 5412 5420 5429 5437 5442 5460 5468 5477 5489 5496 5502 5511 5517 5525 5527 5530 5539 5541 5548 5553 5559 5563 5567 5568 5571 5574 5578 5579 5582 5588 5596 5601 5610 5610 5624 5619 5624 5628
5361 5365 5370 5376 5382 5388 5393 5405 5412 5422 5430 5443 5452 5464 5472 5480 5487 5497 5510 5509 5513 5519 5523 5529 5538 5544 5550 5554 5560 5562 5565 5567 5571 5572 5577 5583 5590 5593 5597 5600 5607 5609 5615 5620
5343 5348 5354 5360 5366 5373 5380 5387 5402 5411 5418 5432 5441 5452 5462 5469 5478 5485 5490 5500 5505 5510 5514 5519 5528 5534 5540 5547 5551 5556 5560 5566 5565 5567 5573 5576 5581 5586 5588 5592 5598 5601 5606 5609
5325 5330 5337 5344 5353 5360 5367 5378 5391 5400 5412 5423 5433 5445 5455 5461 5468 5477 5482 5491 5496 5498 5505 5513 5519 5524 5532 5539 5546 5550 5552 5555 5558 5562 5567 5570 5575 5577 5582 5584 5589 5594 5598 5601
5307 5313 5320 5329 5339 5349 5358 5369 5385 5394 5404 5415 5430 5435 5446 5456 5461 5467 5475 5483 5487 5492 5498 5504 5509 5517 5526 5534 5539 5541 5546 5548 5553 5555 5561 5561 5566 5568 5572 5577 5580 5584 5589 5592
5293 5297 5307 5318 5330 5344 5354 5369 5381 5390 5401 5413 5424 5429 5438 5450 5456 5462 5468 5475 5482 5487 5491 5497 5506 5512 5518 5526 5530 5533 5535 5540 5544 5546 5549 5554 5560 5561 5566 5571 5573 5577 5580 5582
5295 5298 5302 5314 5327 5338 5351 5365 5376 5389 5400 5410 5414 5425 5436 5444 5451 5457 5464 5472 5476 5480 5483 5490 5500 5506 5512 5518 5523 5525 5527 5531 5536 5541 5549 5549 5552 5556 5558 5562 5564 5568 5570 5571
5305 5310 5316 5324 5335 5347 5357 5372 5386 5392 5400 5411 5417 5423 5431 5438 5446 5452 5459 5462 5465 5474 5480 5487 5495 5501 5503 5509 5512 5516 5521 5524 5529 5535 5541 5542 5544 5548 5550 5554 5555 5556 5558 5561
5318 5323 5329 5337 5347 5357 5366 5378 5386 5394 5403 5412 5419 5424 5430 5437 5443 5449 5455 5457 5463 5470 5476 5482 5488 5494 5497 5499 5505 5509 5515 5520 5523 5527 5532 5535 5538 5539 5542 5545 5545 5548 5550 5552
5333 5338 5344 5351 5360 5370 5377 5386 5394 5401 5409 5414 5420 5425 5430 5435 5440 5447 5452 5455 5462 5467 5472 5478 5484 5487 5491 5494 5500 5507 5511 5515 5519 5521 5524 5527 5531 5532 5535 5537 5538 5539 5541 5544
5347 5353 5357 5362 5369 5377 5384 5391 5397 5404 5409 5415 5420 5425 5430 5435 5439 5444 5449 5452 5457 5462 5468 5473 5477 5483 5487 5492 5496 5500 5504 5508 5511 5514 5517 5520 5524 5526 5528 5528 5528 5529 5530 5532
5359 5364 5369 5373 5378 5384 5390 5395 5400 5406 5411 5416 5421 5425 5429 5434 5437 5442 5446 5451 5454 5460 5466 5468 5471 5479 5483 5488 5491 5494 5498 5501 5504 5506 5510 5515 5517 5518 5519 5520 5519 5520 5520 5521
5369 5373 5377 5381 5387 5392 5397 5401 5406 5410 5415 5418 5423 5427 5430 5433 5435 5439 5444 5448 5454 5459 5464 5467 5470 5474 5479 5483 5486 5489 5492 5494 5496 5499 5503 5505 5507 5508 5509 5510 5510 5510 5511 5512
5379 5383 5387 5390 5395 5398 5402 5405 5409 5412 5416 5420 5423 5427 5429 5432 5437 5440 5443 5448 5452 5457 5461 5465 5468 5472 5477 5481 5484 5486 5489 5491 5493 5495 5498 5499 5500 5501 5502 5503 5503 5503 5503 5502
5385 5389 5393 5397 5399 5402 5404 5406 5410 5414 5417 5421 5425 5428 5430 5433 5437 5440 5443 5447 5450 5456 5461 5465 5466 5472 5475 5479 5482 5483 5484 5485 5487 5489 5491 5491 5493 5494 5493 5493 5492 5491 5490 5489
5390 5394 5397 5399 5401 5402 5404 5409 5413 5417 5420 5422 5425 5427 5430 5434 5438 5439 5444 5447 5449 5455 5462 5465 5467 5471 5472 5474 5476 5477 5478 5478 5479 5481 5482 5483 5483 5483 5482 5482 5482 5481 5479 5478
5392 5397 5400 5402 5404 5405 5409 5414 5418 5421 5423 5425 5428 5429 5432 5435 5438 5443 5446 5451 5454 5458 5460 5462 5465 5467 5468 5469 5470 5470 5471 5472 5473 5474 5474 5474 5474 5474 5473 5472 5471 5470 5468 5466
5393 5398 5403 5406 5408 5411 5415 5420 5422 5424 5427 5428 5430 5432 5434 5439 5442 5445 5449 5451 5453 5454 5454 5456 5460 5462 5464 5466 5466 5466 5467 5467 5467 5466 5466 5466 5465 5464 5463 5461 5459 5457 5455 5453